DW8305 Weather Reports


time (UTC)temp
C
wind
direction
speed
KPH
gust
KPH
rain 1hr
cm
rain 24hr
cm
rain mn
cm
humidity
%
barometer
mb
20230128001515 1 90 1.6 3.2 0.00 0.05 0.00 79 1030.2
20230128000515 1 0.0 1.6 0.00 0.05 0.00 80 1030.1
20230127235515 1 0.0 0.0 0.00 0.05 0.00 80 1030.1
20230127234515 1 90 1.6 3.2 0.00 0.05 0.00 79 1030.1
20230127233515 1 45 4.8 6.4 0.00 0.05 0.00 78 1030.1
20230127232515 1 45 1.6 3.2 0.00 0.05 0.00 79 1030.0
20230127231515 1 68 3.2 3.2 0.00 0.05 0.00 79 1030.1
20230127230515 1 68 4.8 6.4 0.00 0.05 0.00 80 1030.0
20230127225516 1 45 3.2 4.8 0.00 0.05 0.05 80 1029.9
20230127224515 1 0.0 1.6 0.00 0.05 0.05 80 1029.9
20230127223516 1 0.0 1.6 0.00 0.05 0.05 80 1030.0
20230127222516 1 68 1.6 1.6 0.00 0.05 0.05 80 1030.0
20230127221516 1 68 1.6 4.8 0.00 0.05 0.05 79 1030.0
20230127220536 1 90 1.6 3.2 0.00 0.05 0.05 79 1030.0
20230127215516 1 68 1.6 3.2 0.00 0.05 0.05 79 1030.1
20230127214516 1 68 1.6 3.2 0.00 0.05 0.05 79 1030.2
20230127213516 1 45 1.6 3.2 0.00 0.05 0.05 79 1030.3
20230127212516 1 90 3.2 4.8 0.00 0.05 0.05 79 1030.3
20230127211516 1 68 1.6 3.2 0.00 0.05 0.05 79 1030.3
20230127210515 1 45 1.6 3.2 0.00 0.05 0.05 78 1030.4
20230127205516 1 45 4.8 6.4 0.00 0.05 0.05 78 1030.4
20230127204515 1 45 3.2 6.4 0.00 0.05 0.05 80 1030.3
20230127203536 1 45 1.6 4.8 0.00 0.05 0.05 80 1030.4
20230127202515 1 45 4.8 6.4 0.00 0.05 0.05 80 1030.3
20230127201515 1 0.0 1.6 0.00 0.05 0.05 80 1030.4
20230127200516 2 45 4.8 6.4 0.00 0.05 0.05 80 1030.3
20230127195516 2 45 3.2 4.8 0.00 0.05 0.05 80 1030.3
20230127194516 2 45 1.6 1.6 0.00 0.05 0.05 81 1030.2
20230127193536 2 68 1.6 3.2 0.00 0.05 0.05 81 1030.2
20230127192516 2 45 4.8 6.4 0.00 0.05 0.05 80 1030.1
20230127191516 2 45 4.8 6.4 0.00 0.05 0.05 81 1030.2
20230127190536 2 68 4.8 6.4 0.00 0.05 0.05 80 1030.1
20230127185516 2 68 1.6 3.2 0.00 0.05 0.05 81 1030.1
20230127184516 2 45 4.8 8.0 0.00 0.05 0.05 82 1030.1
20230127183515 2 68 3.2 3.2 0.00 0.05 0.05 82 1030.1
20230127182516 2 23 4.8 9.7 0.00 0.05 0.05 83 1030.2
20230127181516 2 45 3.2 6.4 0.00 0.05 0.05 82 1030.1
20230127180516 2 45 4.8 6.4 0.00 0.05 0.05 83 1030.0
20230127175516 2 23 4.8 6.4 0.00 0.05 0.05 83 1029.9
20230127174515 2 45 3.2 4.8 0.00 0.05 0.05 84 1029.8
20230127173516 2 45 1.6 4.8 0.00 0.05 0.05 84 1029.7
20230127172516 2 45 1.6 3.2 0.00 0.05 0.05 84 1029.7
20230127171515 2 68 3.2 4.8 0.00 0.05 0.05 84 1029.5
20230127170516 2 68 1.6 3.2 0.00 0.05 0.05 84 1029.5
20230127165515 2 68 3.2 4.8 0.00 0.05 0.05 84 1029.4
20230127164516 2 45 1.6 3.2 0.00 0.05 0.05 84 1029.3
20230127163516 2 68 6.4 8.0 0.00 0.05 0.05 84 1029.3
20230127162516 2 68 6.4 11.3 0.00 0.05 0.05 84 1029.2
20230127161515 2 68 4.8 8.0 0.00 0.05 0.05 84 1029.1
20230127160516 2 68 8.0 12.9 0.00 0.05 0.05 84 1029.0
20230127155515 2 68 4.8 9.7 0.00 0.05 0.05 84 1029.0
20230127154515 2 45 6.4 12.9 0.00 0.05 0.05 84 1028.8
20230127153535 2 68 9.7 14.5 0.00 0.05 0.05 84 1028.7
20230127152516 2 23 6.4 9.7 0.00 0.05 0.05 85 1028.6
20230127151535 3 23 9.7 14.5 0.00 0.05 0.05 86 1028.5
20230127150515 3 45 11.3 22.5 0.00 0.05 0.05 86 1028.4
20230127145515 3 45 8.0 12.9 0.00 0.05 0.05 86 1028.3
20230127144516 3 113 1.6 6.4 0.00 0.05 0.05 86 1028.4
20230127143516 3 23 6.4 12.9 0.00 0.05 0.05 86 1028.2
20230127142515 3 45 4.8 6.4 0.00 0.08 0.05 86 1028.3
20230127141515 3 23 6.4 9.7 0.00 0.08 0.05 86 1028.2
20230127140516 3 23 4.8 9.7 0.00 0.08 0.05 87 1028.1
20230127135516 3 45 8.0 14.5 0.00 0.08 0.05 89 1028.1
20230127134515 3 45 4.8 9.7 0.00 0.08 0.05 89 1028.1
20230127133516 3 68 8.0 11.3 0.00 0.08 0.05 89 1028.1
20230127132515 3 45 8.0 14.5 0.00 0.08 0.05 89 1028.1
20230127131516 3 45 6.4 12.9 0.03 0.08 0.05 89 1028.0
20230127130535 3 45 9.7 17.7 0.03 0.08 0.05 89 1027.9
20230127125515 3 68 8.0 12.9 0.03 0.08 0.05 89 1027.9
20230127124515 3 68 9.7 17.7 0.03 0.08 0.05 89 1028.0
20230127123515 3 23 6.4 8.0 0.03 0.08 0.05 90 1028.0
20230127122515 3 68 8.0 14.5 0.03 0.08 0.05 90 1028.0
20230127121556 3 45 6.4 9.7 0.00 0.05 0.03 90 1028.0
20230127120515 3 45 4.8 6.4 0.00 0.05 0.03 91 1028.0
20230127115515 3 45 4.8 8.0 0.00 0.05 0.03 91 1028.2
20230127114515 3 68 12.9 19.3 0.00 0.05 0.03 91 1028.2
20230127113515 3 68 8.0 12.9 0.00 0.05 0.03 91 1028.3
20230127112515 3 45 8.0 12.9 0.00 0.05 0.03 92 1028.3
20230127111516 3 45 8.0 11.3 0.00 0.05 0.03 92 1028.3
20230127110515 3 23 11.3 19.3 0.00 0.05 0.03 92 1028.3
20230127105515 3 68 9.7 14.5 0.00 0.05 0.03 93 1028.2
20230127104516 3 45 9.7 12.9 0.00 0.05 0.03 93 1028.2
20230127103535 3 45 6.4 11.3 0.00 0.05 0.03 93 1028.0
20230127102515 3 45 8.0 11.3 0.00 0.05 0.03 93 1028.0
20230127101515 3 45 12.9 20.9 0.00 0.05 0.03 95 1028.0
20230127100515 3 68 8.0 11.3 0.00 0.05 0.03 95 1028.0
20230127095516 3 45 8.0 11.3 0.00 0.05 0.03 96 1027.9
20230127094516 3 45 8.0 11.3 0.00 0.05 0.03 96 1028.0
20230127093515 3 68 6.4 9.7 0.00 0.05 0.03 96 1028.0
20230127092516 3 45 4.8 9.7 0.00 0.05 0.03 97 1028.0
20230127091535 3 68 4.8 8.0 0.00 0.05 0.03 97 1028.0
20230127090535 3 23 6.4 11.3 0.00 0.05 0.03 97 1028.0
20230127085516 3 45 4.8 11.3 0.00 0.05 0.03 98 1027.8
20230127084515 3 45 4.8 8.0 0.00 0.05 0.03 98 1027.8
20230127083516 3 68 4.8 8.0 0.00 0.05 0.03 98 1027.7
20230127082535 3 45 8.0 12.9 0.00 0.05 0.03 99 1027.7
20230127081516 3 45 4.8 8.0 0.00 0.05 0.03 99 1027.5
20230127080515 3 45 6.4 9.7 0.00 0.05 0.03 99 1027.4
20230127075555 3 45 8.0 11.3 0.00 0.05 0.03 99 1027.3
20230127074516 3 45 6.4 8.0 0.00 0.05 0.03 99 1027.2
20230127073516 3 45 9.7 17.7 0.00 0.05 0.03 99 1027.1
20230127072556 3 45 8.0 12.9 0.00 0.05 0.03 99 1027.0
20230127071515 3 45 12.9 16.1 0.00 0.05 0.03 99 1026.8
20230127070515 3 45 12.9 20.9 0.00 0.05 0.03 99 1026.6
20230127065536 3 23 8.0 14.5 0.00 0.05 0.03 99 1026.6
20230127064515 3 23 6.4 14.5 0.00 0.05 0.03 99 1026.5
20230127063536 3 23 6.4 9.7 0.00 0.05 0.03 99 1026.4
20230127062516 3 68 6.4 8.0 0.00 0.05 0.03 99 1026.3
20230127061535 3 23 8.0 11.3 0.00 0.05 0.03 99 1026.3
20230127060515 3 45 9.7 17.7 0.00 0.05 0.03 99 1026.2
20230127055515 3 45 9.7 14.5 0.00 0.05 0.03 99 1026.2
20230127054516 3 45 9.7 14.5 0.00 0.05 0.03 99 1026.0
20230127053516 3 45 17.7 24.1 0.00 0.05 0.03 99 1026.0
20230127052515 3 23 8.0 17.7 0.00 0.05 0.03 99 1025.8
20230127051515 3 45 8.0 11.3 0.00 0.05 0.03 99 1025.7
20230127050515 3 45 4.8 9.7 0.00 0.05 0.03 99 1025.7
20230127045515 3 23 4.8 12.9 0.00 0.05 0.03 99 1025.6
20230127044516 3 45 8.0 11.3 0.00 0.05 0.03 99 1025.5
20230127043516 3 23 4.8 8.0 0.00 0.05 0.03 99 1025.4
20230127042515 3 23 4.8 8.0 0.00 0.05 0.03 99 1025.3
20230127041535 3 23 1.6 4.8 0.00 0.05 0.03 99 1025.2
20230127040515 3 45 3.2 4.8 0.00 0.05 0.03 99 1025.2
20230127035515 3 0.0 3.2 0.00 0.05 0.03 99 1025.1
20230127034515 3 23 1.6 1.6 0.00 0.05 0.03 99 1025.1
20230127033515 3 0.0 1.6 0.00 0.05 0.03 99 1025.0
20230127032515 3 0 1.6 3.2 0.00 0.05 0.03 99 1025.0
20230127031515 3 0 1.6 6.4 0.03 0.05 0.03 99 1025.0
20230127030515 2 338 1.6 3.2 0.03 0.05 0.03 99 1025.0
20230127025515 2 0.0 1.6 0.03 0.05 0.03 99 1024.9
20230127024515 2 0.0 1.6 0.03 0.05 0.03 99 1024.7
20230127023515 2 0.0 1.6 0.03 0.05 0.03 99 1024.7
20230127022515 2 0 1.6 3.2 0.03 0.05 0.03 99 1024.7
20230127021515 2 0 1.6 3.2 0.00 0.05 0.00 99 1024.8
20230127020515 2 0 1.6 1.6 0.00 0.05 0.00 99 1024.7
20230127015515 2 23 1.6 3.2 0.00 0.05 0.00 99 1024.8
20230127014515 2 315 3.2 3.2 0.00 0.05 0.00 99 1024.7
20230127013555 2 338 1.6 3.2 0.00 0.05 0.00 99 1024.7
20230127012515 2 23 3.2 6.4 0.00 0.05 0.00 99 1024.6
20230127011515 2 0.0 1.6 0.00 0.05 0.00 99 1024.6
20230127010515 2 338 3.2 4.8 0.00 0.05 0.00 99 1024.5
20230127005515 2 338 4.8 4.8 0.00 0.05 0.00 99 1024.4
20230127004515 2 338 1.6 4.8 0.00 0.05 0.00 99 1024.3
20230127003515 2 315 1.6 1.6 0.00 0.05 0.00 99 1024.3
20230127002515 2 0.0 1.6 0.00 0.05 0.00 99 1024.2